Date_and_time,latitude,longitude,wind_speed,RelWindDirFrom,WindDirFrom,air_pressure,air_temperature,relative_humidity,Temp,platform_speed_wrt_ground,air_pressure_at_mean_sea_level,platform_orientation
2018-11-19 23:40,50.6304483333333,-96.980765,5.4,6.9,185,999.24,-13.7,70,0.93,0.0,1028.87,258.2
2018-11-19 23:50,50.630455,-96.9807766666667,6.0,8.1,187,999.14,-13.9,71,0.94,0.0,1028.78,258.2
2018-11-20 00:00,50.630455,-96.9807733333333,7.1,8.5,183,998.93,-14.1,72,0.94,0.0,1028.58,311.7
2018-11-20 00:00,50.630455,-96.9807733333333,6.0,6.0,195,998.87,-14.1,72,0.95,0.0,1028.54,311.7
2018-11-20 00:10,50.6304516666667,-96.9807733333333,6.9,9.2,185,998.87,-14.1,73,0.96,0.0,1028.56,311.7
2018-11-20 00:20,50.6304516666667,-96.980775,7.2,8.9,186,998.88,-14.2,73,0.97,0.0,1028.58,311.7
2018-11-20 00:30,50.6304533333333,-96.980775,8.7,11.3,178,998.81,-14.3,72,0.98,0.0,1028.51,311.7
2018-11-20 00:40,50.6304533333333,-96.9807733333333,8.6,10.7,180,998.81,-14.4,72,0.98,0.0,1028.51,311.7
2018-11-20 00:50,50.6304533333333,-96.9807733333333,8.3,10.8,181,998.78,-14.3,72,1.00,0.0,1028.49,311.7
2018-11-20 01:00,50.6304533333333,-96.9807716666667,8.2,10.3,181,998.70,-14.4,72,1.01,0.0,1028.40,36.6
2018-11-20 01:10,50.6304466666667,-96.9807683333333,9.0,11.3,179,998.33,-14.5,72,1.01,0.0,1028.03,36.6
2018-11-20 01:20,50.6304533333333,-96.9807666666667,10.1,12.1,176,997.84,-14.6,72,1.02,0.0,1027.55,36.6
2018-11-20 01:30,50.6304516666667,-96.9807666666667,10.7,13.2,177,997.50,-14.6,72,1.02,0.0,1027.20,36.6
2018-11-20 01:40,50.6304483333333,-96.9807666666667,11.2,13.6,177,997.09,-14.5,71,1.02,0.0,1026.79,36.6
2018-11-20 01:50,50.6304466666667,-96.9807633333333,11.9,14.3,176,996.68,-14.6,71,1.02,0.0,1026.37,36.6
2018-11-20 02:00,50.630455,-96.980755,11.3,13.5,177,996.48,-14.6,70,1.03,0.0,1026.17,90.0
2018-11-20 02:10,50.63045,-96.9807566666667,10.1,13.1,183,996.46,-14.5,71,1.03,0.0,1026.14,90.0
2018-11-20 02:20,50.6304583333333,-96.9807733333333,8.6,12.0,190,996.65,-14.6,70,1.02,0.0,1026.35,90.0
2018-11-20 02:30,50.6304566666667,-96.9807666666667,8.2,10.6,186,996.35,-14.7,70,1.02,0.0,1026.05,90.0
2018-11-20 02:40,50.6304533333333,-96.980765,8.2,10.2,182,996.19,-14.7,71,1.02,0.0,1025.88,90.0
2018-11-20 02:50,50.6304533333333,-96.980765,7.4,9.4,184,996.37,-14.7,70,1.02,0.0,1026.07,90.0
2018-11-20 03:00,50.630455,-96.980765,6.8,8.7,183,996.37,-14.6,70,1.02,0.0,1026.08,90.0
2018-11-20 03:10,50.630455,-96.9807633333333,7.5,10.4,176,996.15,-14.6,71,1.02,0.0,1025.86,90.0
2018-11-20 03:20,50.6304566666667,-96.9807633333333,9.2,12.4,165,995.63,-14.6,70,1.02,0.0,1025.32,90.0
2018-11-20 03:30,50.6304566666667,-96.980765,10.4,12.3,169,995.42,-14.5,70,1.02,0.0,1025.09,90.0
2018-11-20 03:40,50.6304616666667,-96.98076,11.1,14.9,175,995.24,-14.3,69,1.02,0.0,1024.90,90.0
2018-11-20 03:50,50.6304516666667,-96.9807483333333,13.4,16.5,170,994.73,-14.3,69,1.02,0.0,1024.37,90.0
2018-11-20 04:00,50.6304533333333,-96.9807633333333,13.3,16.1,173,994.54,-14.4,68,1.02,0.0,1024.18,90.0
2018-11-20 04:10,50.6304516666667,-96.9807666666667,13.3,17.1,173,994.28,-14.3,68,1.02,0.0,1023.92,90.0
2018-11-20 04:20,50.6304516666667,-96.9807666666667,12.1,14.9,178,994.14,-14.3,69,1.02,0.0,1023.77,90.0
2018-11-20 04:30,50.63045,-96.980765,12.9,16.1,177,993.88,-14.2,69,1.02,0.0,1023.51,90.0
2018-11-20 04:40,50.6304533333333,-96.9807633333333,12.4,14.5,182,993.63,-14.1,69,1.02,0.0,1023.24,90.0
2018-11-20 04:50,50.6304516666667,-96.9807683333333,13.5,19.0,182,993.49,-14.1,68,1.02,0.0,1023.08,90.0
2018-11-20 05:00,50.63045,-96.9807616666667,15.2,19.3,184,993.21,-14.0,68,1.02,0.0,1022.79,90.0
2018-11-20 05:10,50.6304483333333,-96.9807633333333,15.1,20.5,184,993.04,-14.0,68,1.02,0.0,1022.62,90.0
2018-11-20 05:20,50.6304483333333,-96.9807633333333,14.3,20.8,187,992.88,-14.0,68,1.02,0.0,1022.44,90.0
2018-11-20 05:30,50.6304483333333,-96.9807666666667,16.4,21.7,184,992.26,-14.1,67,1.02,0.0,1021.80,90.0
2018-11-20 05:40,50.6304483333333,-96.9807666666667,17.1,22.5,184,991.96,-14.0,67,1.01,0.0,1021.49,90.0
2018-11-20 05:50,50.6304483333333,-96.9807666666667,15.7,21.0,188,991.98,-13.9,66,1.01,0.0,1021.51,90.0
2018-11-20 06:00,50.6304483333333,-96.9807683333333,14.9,20.9,185,991.88,-13.9,66,1.01,0.0,1021.40,142.0
2018-11-20 06:10,50.630445,-96.9807916666667,16.2,22.5,185,991.45,-14.0,69,1.01,0.0,1020.96,142.0
2018-11-20 06:20,50.630445,-96.9807683333333,13.9,17.8,180,991.35,-14.1,73,1.01,0.0,1020.86,142.0
2018-11-20 06:30,50.630445,-96.9807716666667,15.0,21.4,183,991.08,-14.1,74,1.01,0.0,1020.58,142.0
2018-11-20 06:40,50.630435,-96.980765,14.9,20.2,181,990.92,-14.1,73,1.01,0.0,1020.41,142.0
2018-11-20 06:50,50.6304366666667,-96.98077,14.1,19.7,180,990.59,-14.0,73,1.01,0.0,1020.06,142.0
2018-11-20 07:00,50.630435,-96.9807716666667,15.7,20.0,181,990.39,-14.0,75,1.00,0.0,1019.86,203.5
2018-11-20 07:10,50.6304366666667,-96.980765,15.4,20.5,176,990.09,-14.0,75,1.00,0.0,1019.55,203.5
2018-11-20 07:20,50.63044,-96.9807683333333,17.3,22.0,172,989.57,-14.0,75,1.00,0.0,1019.02,203.5
2018-11-20 07:30,50.6304433333333,-96.9807733333333,16.8,21.1,170,989.26,-14.0,77,1.00,0.0,1018.69,203.5
2018-11-20 07:40,50.630445,-96.98077,18.3,22.4,172,988.92,-14.0,76,1.00,0.0,1018.34,203.5
2018-11-20 07:50,50.63044,-96.9807633333333,18.3,22.9,172,988.65,-13.9,75,1.00,0.0,1018.05,203.5
2018-11-20 08:00,50.630445,-96.9807733333333,16.9,22.7,173,988.46,-13.8,75,1.00,0.0,1017.86,192.6
2018-11-20 08:10,50.6304466666667,-96.9807733333333,16.7,20.4,171,988.34,-13.8,75,1.00,0.0,1017.74,192.6
2018-11-20 08:20,50.6304483333333,-96.9807733333333,14.9,19.0,174,988.20,-13.8,75,1.00,0.0,1017.60,192.6
2018-11-20 08:30,50.6304483333333,-96.9807733333333,15.0,18.4,173,987.84,-13.8,75,1.00,0.0,1017.23,192.6
2018-11-20 08:40,50.6304433333333,-96.9807733333333,16.3,19.6,175,987.51,-13.9,77,1.01,0.0,1016.89,192.6
2018-11-20 08:50,50.63045,-96.980775,15.8,20.1,174,987.28,-13.9,78,1.01,0.0,1016.65,192.6
2018-11-20 09:00,50.6304516666667,-96.9807783333333,14.2,17.9,178,987.18,-13.9,78,1.01,0.0,1016.54,293.6
2018-11-20 09:10,50.6304516666667,-96.9807766666667,16.3,21.4,176,986.82,-13.9,77,1.00,0.0,1016.17,293.6
2018-11-20 09:20,50.6304516666667,-96.9807766666667,15.5,20.6,175,986.60,-13.8,77,1.00,0.0,1015.94,293.6
2018-11-20 09:30,50.6304516666667,-96.980775,14.1,18.2,176,986.57,-13.8,79,0.98,0.0,1015.90,293.6
2018-11-20 09:40,50.6304516666667,-96.9807733333333,12.8,17.7,183,986.64,-13.7,80,0.98,0.0,1015.98,293.6
2018-11-20 09:50,50.6304533333333,-96.9807733333333,12.6,15.8,184,986.31,-13.7,80,0.98,0.0,1015.62,293.6
2018-11-20 10:00,50.6304533333333,-96.980775,11.5,15.6,182,986.15,-13.7,81,0.98,0.0,1015.45,18.9
2018-11-20 10:10,50.6304616666667,-96.9807816666667,11.5,14.7,186,986.15,-13.6,80,0.98,0.0,1015.46,18.9
2018-11-20 10:20,50.6304616666667,-96.9807883333333,12.2,16.6,186,985.98,-13.6,81,0.98,0.0,1015.28,18.9
2018-11-20 10:30,50.6304533333333,-96.9807683333333,10.5,13.6,186,985.93,-13.5,83,0.97,0.0,1015.23,18.9
2018-11-20 10:40,50.630455,-96.98077,10.1,14.2,190,985.94,-13.5,85,0.97,0.0,1015.24,18.9
2018-11-20 10:50,50.6304583333333,-96.980765,10.0,13.5,189,985.83,-13.4,86,0.97,0.0,1015.12,18.9
2018-11-20 11:00,50.6304566666667,-96.9807666666667,9.4,13.9,187,985.88,-13.4,87,0.97,0.0,1015.17,14.5
2018-11-20 11:10,50.6304566666667,-96.9807683333333,9.6,13.9,190,985.72,-13.4,88,0.97,0.0,1014.99,14.5
2018-11-20 11:20,50.630455,-96.9807533333333,10.3,13.6,193,985.63,-13.3,87,0.96,0.0,1014.91,14.5
2018-11-20 11:30,50.6304716666667,-96.9807733333333,8.1,11.3,188,985.58,-13.3,88,0.96,0.0,1014.84,14.5
2018-11-20 11:40,50.6304566666667,-96.9807716666667,8.8,12.8,196,985.50,-13.2,87,0.97,0.0,1014.76,14.5
2018-11-20 11:50,50.6304533333333,-96.980765,7.4,10.2,198,985.64,-13.2,87,0.97,0.0,1014.90,14.5
2018-11-20 12:00,50.6304616666667,-96.9807766666667,8.0,10.9,198,985.71,-13.2,87,0.97,0.0,1014.97,36.6
2018-11-20 12:10,50.6304666666667,-96.9807866666667,8.0,11.7,201,985.64,-13.2,87,0.97,0.0,1014.89,36.6
2018-11-20 12:20,50.6304583333333,-96.9807666666667,7.9,10.1,201,985.64,-13.2,86,0.97,0.0,1014.89,36.6
2018-11-20 12:30,50.630465,-96.980775,6.6,8.8,196,985.51,-13.1,87,0.97,0.0,1014.75,36.6
2018-11-20 12:40,50.630465,-96.980775,6.2,9.0,204,985.68,-13.1,87,0.97,0.0,1014.92,36.6
2018-11-20 12:50,50.630465,-96.980775,5.0,6.2,208,985.73,-13.1,87,0.97,0.0,1014.97,36.6
2018-11-20 13:00,50.6304516666667,-96.9807866666667,3.9,5.9,221,985.86,-13.0,87,0.97,0.0,1015.10,270.0
2018-11-20 13:10,50.630465,-96.9808016666667,3.1,4.6,227,985.80,-12.9,87,0.97,0.0,1015.03,270.0
2018-11-20 13:20,50.6304583333333,-96.9807816666667,3.1,4.3,243,985.83,-12.8,86,0.97,0.0,1015.05,270.0
2018-11-20 13:30,50.6304583333333,-96.9807733333333,3.6,5.6,241,985.91,-12.8,85,0.97,0.0,1015.13,270.0
2018-11-20 13:40,50.6304583333333,-96.9807733333333,3.5,4.9,247,985.91,-12.8,84,0.97,0.0,1015.12,270.0
2018-11-20 13:50,50.6304516666667,-96.9807983333333,2.6,4.8,255,985.95,-12.7,85,0.97,0.0,1015.17,270.0
2018-11-20 14:00,50.6304566666667,-96.980775,2.9,4.3,271,985.96,-12.6,85,0.98,0.0,1015.17,270.0
2018-11-20 14:10,50.6304566666667,-96.9807783333333,3.1,4.6,277,986.19,-12.6,85,0.98,0.0,1015.40,270.0
2018-11-20 14:20,50.6304583333333,-96.9807783333333,4.0,5.9,308,986.30,-12.4,85,0.99,0.0,1015.50,270.0
2018-11-20 14:30,50.6304666666667,-96.9807633333333,4.2,6.0,306,986.42,-12.4,85,1.01,0.0,1015.62,270.0
2018-11-20 14:40,50.63047,-96.9807666666667,3.7,5.8,321,986.43,-12.3,85,1.02,0.0,1015.63,270.0
2018-11-20 14:50,50.6304666666667,-96.980765,4.2,6.1,309,986.58,-12.3,85,1.03,0.0,1015.77,270.0
2018-11-20 15:00,50.630465,-96.980765,3.7,5.6,309,986.65,-12.2,85,1.04,0.0,1015.83,48.3
2018-11-20 15:10,50.6304583333333,-96.9807816666667,3.9,5.5,308,986.73,-12.1,84,1.05,0.0,1015.91,48.3
2018-11-20 15:20,50.630455,-96.9807716666667,4.1,6.0,300,986.93,-12.0,83,1.06,0.0,1016.11,48.3
2018-11-20 15:30,50.630455,-96.9807716666667,4.1,5.9,310,987.02,-11.6,81,1.06,0.0,1016.17,48.3
2018-11-20 15:40,50.630455,-96.9807716666667,6.0,8.6,300,987.13,-11.4,80,1.06,0.0,1016.27,48.3
2018-11-20 15:50,50.6304583333333,-96.9807733333333,6.0,9.6,305,987.35,-11.2,79,1.06,0.0,1016.48,48.3
2018-11-20 16:00,50.6304583333333,-96.9807733333333,6.2,10.5,317,987.52,-10.9,78,1.06,0.0,1016.64,68.5
2018-11-20 16:10,50.6304566666667,-96.9807733333333,8.3,12.0,316,987.43,-10.7,78,1.06,0.0,1016.53,68.5
2018-11-20 16:20,50.6304583333333,-96.9807733333333,8.3,11.4,326,987.64,-10.5,76,1.06,0.0,1016.74,68.5
2018-11-20 16:30,50.6304566666667,-96.9807733333333,11.0,15.6,329,987.72,-10.3,75,1.05,0.0,1016.80,68.5
2018-11-20 16:40,50.6304566666667,-96.9807733333333,10.8,14.9,336,987.92,-10.2,74,1.05,0.0,1017.00,68.5
2018-11-20 16:50,50.6304566666667,-96.9807733333333,14.0,18.8,343,988.00,-10.2,73,1.05,0.0,1017.07,68.5
2018-11-20 17:00,50.6304433333333,-96.9807833333333,13.1,19.9,339,988.28,-10.3,73,1.04,0.0,1017.36,216.6
2018-11-20 17:10,50.630455,-96.98077,12.4,18.4,337,988.56,-10.3,72,1.04,0.0,1017.64,216.6
2018-11-20 17:20,50.6304583333333,-96.980765,12.3,17.0,333,988.68,-10.4,72,1.03,0.0,1017.75,216.6
2018-11-20 17:30,50.6304566666667,-96.98078,14.7,19.0,342,988.79,-10.4,72,1.03,0.0,1017.85,216.6
2018-11-20 17:40,50.6304516666667,-96.98077,15.2,18.9,347,988.96,-10.3,72,1.03,0.0,1018.01,216.6
2018-11-20 17:50,50.63045,-96.98077,12.7,17.6,351,989.12,-10.2,73,1.03,0.0,1018.15,216.6
2018-11-20 18:00,50.63045,-96.9807716666667,14.5,18.6,349,989.11,-10.3,72,1.03,0.0,1018.14,203.5
2018-11-20 18:10,50.63045,-96.98077,12.8,18.2,347,989.31,-10.4,73,1.03,0.0,1018.34,203.5
2018-11-20 18:20,50.63045,-96.9807716666667,13.8,18.6,349,989.35,-10.6,74,1.03,0.0,1018.38,203.5
2018-11-20 18:30,50.6304516666667,-96.9807716666667,13.7,17.6,348,989.50,-10.7,74,1.03,0.0,1018.53,203.5
2018-11-20 18:40,50.63045,-96.9807716666667,12.2,16.5,343,989.75,-10.6,74,1.03,0.0,1018.79,203.5
2018-11-20 18:50,50.63045,-96.9807716666667,13.8,19.2,346,989.87,-10.7,73,1.03,0.0,1018.92,203.5
2018-11-20 19:00,50.63045,-96.9807733333333,13.4,18.4,348,989.91,-10.3,72,1.04,0.0,1018.94,142.0
2018-11-20 19:10,50.6304433333333,-96.9807716666667,13.3,19.2,345,990.09,-10.4,73,1.03,0.0,1019.13,142.0
2018-11-20 19:20,50.63045,-96.9807683333333,12.4,17.3,335,990.24,-10.7,71,1.03,0.0,1019.30,142.0
2018-11-20 19:30,50.6304483333333,-96.9807716666667,11.5,18.3,332,990.40,-10.6,70,1.03,0.0,1019.46,142.0
2018-11-20 19:40,50.6304483333333,-96.9807683333333,12.8,20.0,335,990.45,-10.8,71,1.03,0.0,1019.51,142.0
2018-11-20 19:50,50.63045,-96.9807683333333,13.6,20.9,336,990.50,-11.0,71,1.03,0.0,1019.58,142.0
2018-11-20 20:00,50.6304516666667,-96.980765,10.4,15.8,335,990.78,-11.0,71,1.03,0.0,1019.88,42.8
2018-11-20 20:10,50.63045,-96.98077,11.2,17.6,330,990.86,-10.9,70,1.03,0.0,1019.97,42.8
2018-11-20 20:20,50.6304383333333,-96.9807766666667,10.6,15.2,344,991.10,-10.7,72,1.03,0.0,1020.20,42.8
2018-11-20 20:30,50.630445,-96.9807633333333,12.8,16.1,352,991.09,-10.7,73,1.03,0.0,1020.19,42.8
2018-11-20 20:40,50.6304383333333,-96.980765,11.3,15.2,344,991.26,-10.7,72,1.03,0.0,1020.37,42.8
2018-11-20 20:50,50.6304416666667,-96.9807683333333,12.6,19.3,349,991.38,-10.6,73,1.03,0.0,1020.47,42.8
2018-11-20 21:00,50.6304416666667,-96.9807683333333,12.9,18.2,346,991.48,-10.6,73,1.03,0.0,1020.58,360.0
2018-11-20 21:10,50.6304416666667,-96.98077,13.0,21.3,337,991.57,-10.6,72,1.02,0.0,1020.68,360.0
2018-11-20 21:20,50.630435,-96.98077,12.0,17.7,338,991.68,-10.5,71,1.02,0.0,1020.79,360.0
2018-11-20 21:30,50.6304383333333,-96.980765,12.3,19.1,343,991.77,-10.4,71,1.02,0.0,1020.89,360.0
2018-11-20 21:40,50.6304416666667,-96.9807683333333,10.8,15.9,343,992.00,-10.4,72,1.02,0.0,1021.13,360.0
2018-11-20 21:50,50.63044,-96.9807683333333,11.1,16.5,347,992.11,-10.4,73,1.02,0.0,1021.25,360.0
2018-11-20 22:00,50.6304416666667,-96.9807683333333,12.8,17.1,349,992.25,-10.4,73,1.02,0.0,1021.38,360.0
2018-11-20 22:10,50.6304416666667,-96.9807683333333,13.9,19.8,352,992.45,-10.5,72,1.02,0.0,1021.59,360.0
2018-11-20 22:20,50.6304416666667,-96.98077,12.1,16.6,348,992.66,-10.6,72,1.02,0.0,1021.80,360.0
2018-11-20 22:30,50.6304416666667,-96.98077,12.2,16.9,352,992.80,-10.6,72,1.01,0.0,1021.95,360.0
2018-11-20 22:40,50.6304316666667,-96.9807733333333,13.6,19.3,354,992.90,-10.6,72,1.02,0.0,1022.05,360.0
2018-11-20 22:50,50.6304333333333,-96.9807733333333,12.7,16.9,353,993.21,-10.7,71,1.02,0.0,1022.37,360.0
2018-11-20 23:00,50.6304416666667,-96.9807766666667,15.1,18.1,359,993.41,-10.7,71,1.02,0.0,1022.58,360.0
2018-11-20 23:10,50.6304383333333,-96.98077,14.2,17.6,358,993.60,-10.7,72,1.02,0.0,1022.78,360.0
2018-11-20 23:20,50.630435,-96.9807716666667,12.6,18.5,345,993.76,-10.8,70,1.02,0.0,1022.93,360.0
2018-11-20 23:30,50.6304366666667,-96.980775,12.4,17.2,349,993.97,-10.9,70,1.02,0.0,1023.16,360.0
2018-11-20 23:40,50.6304383333333,-96.980775,13.9,18.3,357,994.14,-10.9,69,1.02,0.0,1023.33,360.0
2018-11-20 23:50,50.6304516666667,-96.9807883333333,9.9,14.7,337,994.38,-11.1,68,1.02,0.0,1023.59,360.0
